Location: Central Falls
(41.8900°N, 71.3929°W)
Time: 04:15:54
(UTC+00:00)

Vanguard 2 - Pass Details

Date: 09 December 2023
Orbit: 554 x 2918 km, 32.9° (Epoch: 01 March)

Event Time Altitude Azimuth Distance (km) Brightness Sun altitude
Rises 04:46:51 0° 273° (W) 6,679 12.3 -70.8°
Enters shadow 04:48:41 - 271° (W) 6,245 12.1 -70.8°
Reaches altitude 10° 04:51:47 10° 268° (W) 5,498 - -70.7°
Maximum altitude 05:06:23 48° 202° (SSW) 2,598 - -70.0°
Drops below altitude 10° 05:15:57 10° 132° (SE) 3,683 - -69.3°
Sets 05:18:35 0° 126° (SE) 4,383 - -69.1°
